Starlink 31532

operational
NORAD ID: 59349 Int'l Des: 2024-060 Owner: SPXS Country: US Constellation: starlink
LEOCIRCULAR

关于 Starlink 31532

正在加载描述...

实时位置

正在加载3D地球...

即将过境

高度历史

Altitude vs Time

uPlot chart will show altitude changes over time

两行轨道根数

1 59349U 24060B 25305.86468687 .00004434 00000-0 17068-3 0 9990
2 59349 43.0027 261.7501 0001608 269.1867 90.8800 15.27557279 90569
Epoch: Nov 1, 2025 • Age: 29 hours

当前状态

高度 485.5 km
速度 7.63 km/s
星下点 35.67°N, 116.39°W
发射日期 Mar 31, 2024
运行时间 1.5 years
类型 internet

技术详情

分类 Payload
质量 730.00 kg
干质量 700.00 kg
总质量 730.00 kg
长度 0.30 m
直径 4.10 m
跨度 29.00 m
形状 Box + pan
制造商 SPXS
平台类型 Starlink V2M
阶段状态 In Orbit
所有者/国家 SPXS/US

大型星座

Loading constellations...